contact:dominique.lefevre@mio.osupytheas.fr, maurice.libes@osupytheas.fr, didier.mallarino@osupytheas.fr
Project:EMSO http://www.emso-fr.org/EMSO-France
Depth: 2436.0 m
Title:EMSO Ligure Ouest : Data MII capteur AQUADOPP
Date,Latitude,Longitude,X_East,Y_North,Z_Up,Amplitude_X,Amplitude_Y,Amplitude_Z,Batterie,SoundSpeed,Heading,Pitch,Roll,Pressure,TIS,Speed,Direction
, degrees North, degrees East, m.s-1, m.s-1,m.s-1, 1, 1, 1, Volt, m.s-1, degree, degree, degree, dbar, degree_C, m.s-1, degree
2020-10-21T00:04:03,42.805,6.029,0.004,-0.029,-0.017,106.0,107.0,103.0,13.4,1505.2,326.5,-0.7,1.8,2470.506,13.3,0.029,172.2
2020-10-21T00:07:03,42.805,6.029,-0.048,-0.045,-0.02,106.0,107.0,102.0,13.4,1505.3,324.6,-0.7,1.8,2470.536,13.31,0.065,226.9
2020-10-21T00:10:03,42.805,6.029,-0.025,-0.026,-0.023,106.0,107.0,101.0,13.4,1505.3,326.4,-0.7,1.8,2470.508,13.32,0.036,223.9
2020-10-21T00:13:03,42.805,6.029,-0.038,-0.027,-0.035,105.0,107.0,102.0,13.3,1505.3,326.5,-0.7,1.8,2470.53,13.32,0.046,234.6
2020-10-21T00:16:03,42.805,6.029,-0.063,-0.037,-0.002,105.0,107.0,102.0,13.4,1505.3,324.5,-0.7,1.8,2470.473,13.32,0.073,239.6
2020-10-21T00:19:03,42.805,6.029,-0.007,-0.024,0.02,107.0,105.0,103.0,13.4,1505.3,324.4,-0.7,1.8,2470.486,13.32,0.025,196.3
2020-10-21T00:22:03,42.805,6.029,-0.036,-0.028,-0.032,105.0,106.0,101.0,13.3,1505.3,326.8,-0.7,1.8,2470.474,13.32,0.045,232.1
2020-10-21T00:25:03,42.805,6.029,-0.013,-0.029,0.008,107.0,106.0,103.0,13.4,1505.3,327.0,-0.7,1.8,2470.463,13.32,0.031,204.1
2020-10-21T00:28:03,42.805,6.029,-0.032,-0.036,-0.025,105.0,107.0,102.0,13.4,1505.3,327.4,-0.7,1.8,2470.442,13.32,0.048,221.6
2020-10-21T00:31:03,42.805,6.029,-0.037,-0.035,-0.025,107.0,105.0,103.0,13.4,1505.3,323.3,-0.7,1.9,2470.44,13.32,0.05,226.6
2020-10-21T00:34:03,42.805,6.029,-0.035,-0.021,0.002,106.0,107.0,103.0,13.4,1505.3,324.7,-0.7,1.9,2470.441,13.33,0.04,239.0
2020-10-21T00:37:03,42.805,6.029,-0.028,-0.037,-0.021,105.0,106.0,103.0,13.4,1505.3,327.2,-0.7,1.8,2470.476,13.32,0.046,217.1
2020-10-21T00:40:03,42.805,6.029,-0.045,-0.027,-0.021,107.0,105.0,103.0,13.4,1505.3,328.0,-0.7,1.8,2470.458,13.32,0.052,239.0
2020-10-21T00:43:03,42.805,6.029,-0.017,-0.03,0.008,105.0,107.0,102.0,13.4,1505.3,324.9,-0.7,1.8,2470.481,13.32,0.034,209.5
2020-10-21T00:46:03,42.805,6.029,-0.028,-0.046,-0.005,107.0,106.0,102.0,13.4,1505.3,326.8,-0.7,1.8,2470.436,13.32,0.053,211.3
2020-10-21T00:49:03,42.805,6.029,-0.029,-0.026,-0.013,106.0,107.0,102.0,13.4,1505.3,327.6,-0.7,1.9,2470.463,13.32,0.038,228.1
2020-10-21T00:52:03,42.805,6.029,-0.014,-0.038,0.0,106.0,107.0,103.0,13.4,1505.3,326.0,-0.7,1.8,2470.441,13.33,0.04,200.2
2020-10-21T00:55:03,42.805,6.029,-0.025,-0.027,-0.019,107.0,106.0,105.0,13.3,1505.3,328.5,-0.7,1.9,2470.436,13.32,0.036,222.8
2020-10-21T00:58:03,42.805,6.029,-0.036,-0.043,-0.02,106.0,106.0,103.0,13.4,1505.3,322.7,-0.7,1.8,2470.429,13.32,0.056,219.9
2020-10-21T01:04:03,42.805,6.029,-0.036,-0.042,-0.008,106.0,106.0,104.0,13.4,1505.2,323.6,-0.7,1.8,2470.46,13.3,0.055,220.6
2020-10-21T01:07:03,42.805,6.029,-0.016,-0.051,0.013,107.0,105.0,103.0,13.3,1505.3,328.2,-0.7,1.8,2470.457,13.31,0.053,197.4
2020-10-21T01:10:03,42.805,6.029,-0.025,-0.022,0.022,107.0,107.0,103.0,13.4,1505.3,323.4,-0.7,1.8,2470.421,13.32,0.033,228.7
2020-10-21T01:13:03,42.805,6.029,-0.053,-0.033,-0.035,108.0,105.0,102.0,13.4,1505.3,325.6,-0.7,1.9,2470.452,13.32,0.062,238.1
2020-10-21T01:16:03,42.805,6.029,-0.056,-0.034,-0.016,107.0,106.0,103.0,13.4,1505.3,325.3,-0.6,1.8,2470.431,13.32,0.065,238.7
2020-10-21T01:19:03,42.805,6.029,-0.053,-0.018,-0.007,107.0,108.0,103.0,13.4,1505.3,325.3,-0.7,1.8,2470.454,13.32,0.055,251.2
2020-10-21T01:22:03,42.805,6.029,-0.024,-0.017,0.016,107.0,108.0,103.0,13.4,1505.3,326.9,-0.7,1.8,2470.401,13.32,0.029,234.7
2020-10-21T01:25:03,42.805,6.029,-0.042,-0.019,0.006,108.0,109.0,104.0,13.4,1505.3,325.1,-0.7,1.8,2470.384,13.32,0.046,245.7
2020-10-21T01:28:03,42.805,6.029,-0.032,-0.028,0.003,108.0,107.0,105.0,13.4,1505.3,324.3,-0.7,1.8,2470.45,13.32,0.042,228.8
2020-10-21T01:31:03,42.805,6.029,-0.032,-0.038,-0.029,109.0,108.0,104.0,13.4,1505.3,324.7,-0.7,1.8,2470.403,13.32,0.049,220.1
2020-10-21T01:34:03,42.805,6.029,-0.054,-0.022,-0.015,108.0,107.0,104.0,13.4,1505.3,328.5,-0.7,1.8,2470.413,13.32,0.058,247.8
2020-10-21T01:37:03,42.805,6.029,-0.046,-0.012,-0.033,109.0,110.0,105.0,13.4,1505.3,327.5,-0.7,1.9,2470.43,13.32,0.047,255.4
2020-10-21T01:40:03,42.805,6.029,-0.047,-0.026,-0.008,108.0,108.0,104.0,13.4,1505.3,326.5,-0.7,1.8,2470.419,13.32,0.053,241.1
2020-10-21T01:43:03,42.805,6.029,-0.065,-0.01,-0.015,109.0,109.0,104.0,13.3,1505.3,324.4,-0.6,1.8,2470.399,13.32,0.065,261.3
2020-10-21T01:46:03,42.805,6.029,-0.045,-0.031,0.018,108.0,109.0,105.0,13.4,1505.3,327.0,-0.7,1.8,2470.437,13.32,0.054,235.4
2020-10-21T01:49:03,42.805,6.029,-0.04,-0.031,0.004,107.0,110.0,105.0,13.4,1505.3,324.4,-0.7,1.8,2470.412,13.32,0.05,232.2
2020-10-21T01:52:03,42.805,6.029,-0.037,-0.011,-0.007,109.0,109.0,104.0,13.4,1505.3,326.7,-0.7,1.8,2470.42,13.32,0.038,253.4
2020-10-21T01:55:03,42.805,6.029,-0.026,-0.017,0.019,110.0,109.0,104.0,13.4,1505.3,325.1,-0.7,1.8,2470.432,13.32,0.031,236.8
2020-10-21T01:58:03,42.805,6.029,-0.025,-0.02,0.025,109.0,108.0,104.0,13.4,1505.3,326.8,-0.7,1.8,2470.432,13.32,0.032,231.3
2020-10-21T02:04:03,42.805,6.029,-0.036,-0.044,-0.01,109.0,110.0,104.0,13.4,1505.2,324.1,-0.7,1.8,2470.451,13.3,0.056,219.3
2020-10-21T02:07:03,42.805,6.029,-0.038,-0.026,0.009,109.0,109.0,106.0,13.4,1505.3,324.2,-0.7,1.9,2470.459,13.31,0.046,235.6
2020-10-21T02:10:03,42.805,6.029,-0.029,-0.025,0.021,108.0,109.0,105.0,13.4,1505.3,324.8,-0.7,1.8,2470.395,13.32,0.038,229.2
2020-10-21T02:13:03,42.805,6.029,-0.062,-0.023,-0.022,110.0,108.0,105.0,13.4,1505.3,324.3,-0.7,1.8,2470.396,13.32,0.066,249.7
2020-10-21T02:16:03,42.805,6.029,-0.039,-0.02,-0.008,108.0,109.0,104.0,13.3,1505.3,323.3,-0.7,1.8,2470.447,13.32,0.043,242.9
2020-10-21T02:19:03,42.805,6.029,-0.042,-0.026,-0.021,108.0,108.0,104.0,13.4,1505.3,326.6,-0.7,1.8,2470.431,13.32,0.049,238.2
2020-10-21T02:22:03,42.805,6.029,-0.022,-0.025,0.041,108.0,108.0,105.0,13.4,1505.3,326.3,-0.7,1.8,2470.424,13.32,0.033,221.3
2020-10-21T02:25:03,42.805,6.029,-0.03,-0.013,-0.008,108.0,108.0,104.0,13.4,1505.3,327.2,-0.7,1.8,2470.415,13.32,0.032,246.6
2020-10-21T02:28:03,42.805,6.029,-0.038,-0.019,-0.001,108.0,108.0,103.0,13.4,1505.3,326.2,-0.7,1.8,2470.392,13.32,0.042,243.4
2020-10-21T02:31:03,42.805,6.029,-0.015,-0.039,0.0,107.0,109.0,105.0,13.4,1505.3,328.1,-0.7,1.8,2470.404,13.32,0.041,201.0
2020-10-21T02:34:03,42.805,6.029,-0.039,-0.048,0.001,110.0,110.0,105.0,13.4,1505.3,325.7,-0.7,1.8,2470.385,13.32,0.061,219.1
2020-10-21T02:37:03,42.805,6.029,-0.037,-0.03,0.008,108.0,109.0,106.0,13.3,1505.3,326.6,-0.7,1.8,2470.401,13.32,0.047,231.0
2020-10-21T02:40:03,42.805,6.029,-0.053,-0.037,-0.034,109.0,109.0,105.0,13.3,1505.3,325.0,-0.7,1.8,2470.403,13.32,0.064,235.1
2020-10-21T02:43:03,42.805,6.029,-0.025,-0.03,0.0,108.0,109.0,106.0,13.4,1505.3,327.9,-0.7,1.8,2470.378,13.32,0.039,219.8
2020-10-21T02:46:03,42.805,6.029,-0.045,-0.035,0.005,109.0,110.0,104.0,13.4,1505.3,326.7,-0.7,1.8,2470.389,13.32,0.057,232.1
2020-10-21T02:49:03,42.805,6.029,-0.037,-0.015,-0.011,109.0,108.0,105.0,13.4,1505.3,327.7,-0.7,1.8,2470.397,13.32,0.039,247.9
2020-10-21T02:52:03,42.805,6.029,-0.045,-0.025,0.005,107.0,109.0,104.0,13.3,1505.3,325.9,-0.7,1.8,2470.414,13.32,0.051,240.9
2020-10-21T02:55:03,42.805,6.029,-0.042,-0.036,-0.02,108.0,110.0,106.0,13.4,1505.3,326.4,-0.7,1.8,2470.412,13.32,0.055,229.4
2020-10-21T02:58:03,42.805,6.029,-0.051,-0.014,-0.005,109.0,109.0,105.0,13.4,1505.3,324.9,-0.7,1.9,2470.395,13.32,0.052,254.7
2020-10-21T03:04:03,42.805,6.029,-0.058,-0.024,-0.009,108.0,108.0,105.0,13.4,1505.2,327.4,-0.7,1.8,2470.433,13.3,0.062,247.5
2020-10-21T03:07:03,42.805,6.029,-0.039,-0.051,-0.018,109.0,109.0,104.0,13.3,1505.3,323.8,-0.7,1.9,2470.424,13.31,0.064,217.4
2020-10-21T03:10:03,42.805,6.029,-0.05,-0.03,0.007,110.0,108.0,104.0,13.4,1505.3,325.1,-0.7,1.9,2470.478,13.32,0.058,239.0
2020-10-21T03:13:03,42.805,6.029,-0.034,-0.024,0.0,109.0,109.0,104.0,13.3,1505.3,326.3,-0.7,1.8,2470.365,13.32,0.041,234.8
2020-10-21T03:16:03,42.805,6.029,-0.049,-0.025,0.004,108.0,110.0,106.0,13.4,1505.3,324.1,-0.7,1.8,2470.404,13.32,0.055,243.0
2020-10-21T03:19:03,42.805,6.029,-0.062,-0.022,-0.007,110.0,108.0,105.0,13.4,1505.3,323.0,-0.7,1.8,2470.373,13.32,0.065,250.5
2020-10-21T03:22:03,42.805,6.029,-0.023,-0.036,-0.024,109.0,106.0,105.0,13.4,1505.3,324.0,-0.7,1.8,2470.404,13.32,0.042,212.6
2020-10-21T03:25:03,42.805,6.029,-0.056,-0.034,-0.048,107.0,109.0,104.0,13.4,1505.3,327.0,-0.7,1.8,2470.353,13.32,0.065,238.7
2020-10-21T03:28:03,42.805,6.029,-0.027,-0.038,-0.013,109.0,108.0,104.0,13.4,1505.3,324.4,-0.7,1.8,2470.417,13.32,0.046,215.4
2020-10-21T03:31:03,42.805,6.029,-0.035,-0.026,-0.006,108.0,108.0,105.0,13.3,1505.3,325.8,-0.7,1.8,2470.412,13.32,0.043,233.4
2020-10-21T03:34:03,42.805,6.029,-0.039,-0.03,0.03,110.0,108.0,104.0,13.3,1505.3,324.5,-0.7,1.8,2470.401,13.32,0.049,232.4
2020-10-21T03:37:03,42.805,6.029,-0.037,-0.029,-0.002,107.0,109.0,104.0,13.4,1505.3,325.1,-0.7,1.8,2470.37,13.32,0.047,231.9
2020-10-21T03:40:03,42.805,6.029,-0.035,-0.028,-0.027,107.0,108.0,103.0,13.4,1505.3,327.0,-0.7,1.8,2470.335,13.32,0.044,231.3
2020-10-21T03:43:03,42.805,6.029,-0.05,-0.029,-0.013,109.0,108.0,104.0,13.4,1505.3,324.5,-0.7,1.8,2470.351,13.32,0.057,239.9
2020-10-21T03:46:03,42.805,6.029,-0.037,-0.036,-0.009,109.0,108.0,105.0,13.4,1505.3,325.3,-0.7,1.9,2470.389,13.32,0.051,225.8
2020-10-21T03:49:03,42.805,6.029,-0.034,-0.022,-0.018,108.0,110.0,106.0,13.3,1505.3,324.7,-0.7,1.8,2470.397,13.32,0.04,237.1
2020-10-21T03:52:03,42.805,6.029,-0.054,-0.031,-0.002,108.0,109.0,106.0,13.4,1505.3,324.2,-0.7,1.8,2470.37,13.32,0.062,240.1
2020-10-21T03:55:03,42.805,6.029,-0.041,-0.049,-0.022,109.0,108.0,104.0,13.3,1505.3,325.5,-0.7,1.8,2470.346,13.32,0.063,219.9
2020-10-21T03:58:03,42.805,6.029,-0.033,-0.009,0.046,108.0,109.0,105.0,13.4,1505.3,324.7,-0.7,1.8,2470.358,13.32,0.034,254.7
2020-10-21T04:04:03,42.805,6.029,-0.044,-0.022,-0.024,108.0,109.0,105.0,13.4,1505.2,323.5,-0.7,1.8,2470.428,13.3,0.049,243.4
2020-10-21T04:07:03,42.805,6.029,-0.048,-0.034,-0.011,108.0,109.0,106.0,13.3,1505.3,324.8,-0.7,1.8,2470.404,13.31,0.058,234.7
2020-10-21T04:10:03,42.805,6.029,-0.039,-0.013,-0.001,108.0,108.0,104.0,13.4,1505.3,327.3,-0.8,1.8,2470.422,13.32,0.041,251.6
2020-10-21T04:13:03,42.805,6.029,-0.045,-0.055,0.006,108.0,108.0,105.0,13.4,1505.3,325.8,-0.7,1.8,2470.411,13.32,0.071,219.3
2020-10-21T04:16:03,42.805,6.029,-0.047,-0.021,-0.001,109.0,108.0,104.0,13.4,1505.3,323.8,-0.7,1.8,2470.393,13.32,0.051,245.9
2020-10-21T04:19:03,42.805,6.029,-0.033,-0.034,0.007,108.0,109.0,104.0,13.4,1505.3,324.6,-0.7,1.8,2470.404,13.32,0.047,224.1
2020-10-21T04:22:03,42.805,6.029,-0.028,-0.021,0.009,107.0,109.0,105.0,13.4,1505.3,327.8,-0.6,1.8,2470.41,13.32,0.035,233.1
2020-10-21T04:25:03,42.805,6.029,-0.038,-0.007,-0.025,108.0,109.0,104.0,13.3,1505.3,323.8,-0.7,1.8,2470.431,13.32,0.038,259.6
2020-10-21T04:28:03,42.805,6.029,-0.058,-0.031,-0.031,108.0,107.0,105.0,13.4,1505.3,324.4,-0.7,1.8,2470.389,13.32,0.065,241.9
2020-10-21T04:31:03,42.805,6.029,-0.025,-0.028,-0.002,109.0,109.0,104.0,13.3,1505.3,327.5,-0.7,1.8,2470.42,13.32,0.037,221.8
2020-10-21T04:34:03,42.805,6.029,-0.047,-0.033,-0.016,109.0,108.0,105.0,13.4,1505.3,328.0,-0.7,1.8,2470.367,13.32,0.057,234.9
2020-10-21T04:37:03,42.805,6.029,-0.036,-0.03,0.015,110.0,109.0,104.0,13.4,1505.3,322.8,-0.7,1.8,2470.401,13.32,0.046,230.2
2020-10-21T04:40:03,42.805,6.029,-0.056,-0.01,-0.005,109.0,109.0,105.0,13.4,1505.3,324.4,-0.7,1.9,2470.371,13.32,0.056,259.9
2020-10-21T04:46:03,42.805,6.029,-0.048,-0.021,-0.002,108.0,107.0,105.0,13.4,1505.2,327.8,-0.7,1.8,2470.443,13.3,0.052,246.4
2020-10-21T04:49:03,42.805,6.029,-0.02,-0.027,0.004,109.0,108.0,105.0,13.3,1505.3,323.2,-0.7,1.8,2470.421,13.31,0.033,216.5
2020-10-21T04:52:03,42.805,6.029,-0.032,-0.029,0.002,109.0,108.0,104.0,13.4,1505.3,326.6,-0.7,1.9,2470.428,13.32,0.043,227.8
2020-10-21T04:55:03,42.805,6.029,-0.045,-0.037,-0.017,109.0,110.0,104.0,13.4,1505.3,326.0,-0.7,1.8,2470.362,13.32,0.058,230.6
2020-10-21T04:58:03,42.805,6.029,-0.031,-0.041,-0.014,108.0,109.0,105.0,13.3,1505.3,325.2,-0.7,1.8,2470.367,13.32,0.051,217.1
2020-10-21T05:04:03,42.805,6.029,-0.036,-0.017,0.012,108.0,108.0,105.0,13.4,1505.2,324.7,-0.7,1.8,2470.421,13.3,0.039,244.7
2020-10-21T05:07:03,42.805,6.029,-0.037,-0.018,0.005,110.0,109.0,104.0,13.3,1505.3,326.0,-0.7,1.8,2470.424,13.31,0.041,244.1
2020-10-21T05:10:03,42.805,6.029,-0.035,-0.017,-0.035,107.0,108.0,103.0,13.4,1505.3,326.0,-0.7,1.8,2470.416,13.32,0.038,244.1
2020-10-21T05:13:03,42.805,6.029,-0.04,-0.026,0.009,109.0,109.0,105.0,13.4,1505.3,327.2,-0.7,1.8,2470.431,13.32,0.047,237.0
2020-10-21T05:16:03,42.805,6.029,-0.044,-0.023,-0.012,108.0,107.0,105.0,13.3,1505.3,327.3,-0.7,1.8,2470.425,13.32,0.049,242.4
2020-10-21T05:19:03,42.805,6.029,-0.038,-0.033,-0.018,109.0,109.0,105.0,13.3,1505.3,325.6,-0.7,1.8,2470.396,13.32,0.05,229.0
2020-10-21T05:22:03,42.805,6.029,-0.023,-0.031,-0.031,108.0,108.0,104.0,13.3,1505.3,324.5,-0.7,1.8,2470.41,13.32,0.038,216.6
2020-10-21T05:25:03,42.805,6.029,-0.024,-0.012,-0.002,109.0,108.0,104.0,13.4,1505.3,325.0,-0.7,1.8,2470.37,13.32,0.026,243.4
2020-10-21T05:28:03,42.805,6.029,-0.043,-0.016,-0.021,108.0,109.0,104.0,13.3,1505.3,325.7,-0.7,1.8,2470.421,13.32,0.045,249.6
2020-10-21T05:31:03,42.805,6.029,-0.046,-0.051,-0.015,110.0,107.0,105.0,13.4,1505.3,325.1,-0.7,1.8,2470.387,13.32,0.068,222.0
2020-10-21T05:34:03,42.805,6.029,-0.055,-0.036,0.028,109.0,109.0,104.0,13.4,1505.3,328.3,-0.7,1.8,2470.399,13.32,0.065,236.8
2020-10-21T05:37:03,42.805,6.029,-0.037,-0.031,-0.001,109.0,110.0,105.0,13.3,1505.3,325.1,-0.7,1.8,2470.387,13.32,0.048,230.0
2020-10-21T05:40:03,42.805,6.029,-0.044,-0.018,-0.004,109.0,109.0,104.0,13.3,1505.3,323.1,-0.7,1.8,2470.365,13.32,0.047,247.8
2020-10-21T05:43:03,42.805,6.029,-0.041,-0.042,0.011,109.0,109.0,106.0,13.4,1505.3,326.0,-0.7,1.8,2470.362,13.32,0.058,224.3
2020-10-21T05:46:03,42.805,6.029,-0.036,-0.02,-0.026,107.0,108.0,105.0,13.3,1505.3,327.2,-0.7,1.8,2470.377,13.32,0.041,240.9
2020-10-21T05:49:03,42.805,6.029,-0.042,-0.034,-0.015,108.0,109.0,104.0,13.3,1505.3,324.3,-0.7,1.8,2470.394,13.32,0.054,231.0
2020-10-21T05:52:03,42.805,6.029,-0.053,-0.034,0.011,108.0,109.0,104.0,13.4,1505.3,327.7,-0.7,1.8,2470.362,13.32,0.062,237.3
2020-10-21T05:55:03,42.805,6.029,-0.035,-0.036,0.007,108.0,108.0,103.0,13.4,1505.3,325.9,-0.7,1.9,2470.392,13.32,0.05,224.2
2020-10-21T05:58:03,42.805,6.029,-0.062,-0.016,-0.025,108.0,108.0,104.0,13.4,1505.3,323.3,-0.7,1.8,2470.454,13.32,0.064,255.5
2020-10-21T06:04:03,42.805,6.029,-0.05,-0.033,0.009,108.0,108.0,104.0,13.4,1505.2,324.7,-0.7,1.8,2470.479,13.3,0.059,236.6
2020-10-21T06:07:03,42.805,6.029,-0.017,-0.025,-0.029,107.0,109.0,104.0,13.4,1505.3,324.2,-0.7,1.8,2470.405,13.31,0.03,214.2
2020-10-21T06:10:03,42.805,6.029,-0.036,-0.03,0.005,107.0,109.0,105.0,13.4,1505.3,325.7,-0.7,1.8,2470.45,13.32,0.046,230.2
2020-10-21T06:13:03,42.805,6.029,-0.023,-0.033,-0.017,108.0,111.0,104.0,13.4,1505.3,324.8,-0.7,1.9,2470.453,13.32,0.04,214.9
2020-10-21T06:16:03,42.805,6.029,-0.041,-0.011,0.015,108.0,109.0,104.0,13.3,1505.3,324.8,-0.7,1.8,2470.426,13.32,0.042,255.0
2020-10-21T06:19:03,42.805,6.029,-0.033,-0.029,0.018,108.0,109.0,105.0,13.3,1505.3,326.9,-0.7,1.8,2470.46,13.32,0.043,228.7
2020-10-21T06:22:03,42.805,6.029,-0.024,-0.036,-0.031,107.0,108.0,104.0,13.4,1505.3,325.8,-0.7,1.8,2470.425,13.32,0.043,213.7
2020-10-21T06:25:03,42.805,6.029,-0.019,-0.041,0.014,108.0,107.0,102.0,13.3,1505.3,324.9,-0.7,1.8,2470.416,13.32,0.045,204.9
2020-10-21T06:28:03,42.805,6.029,-0.027,-0.023,0.0,108.0,109.0,103.0,13.4,1505.3,326.0,-0.7,1.8,2470.399,13.32,0.035,229.6
2020-10-21T06:31:03,42.805,6.029,-0.041,-0.02,-0.014,107.0,108.0,104.0,13.3,1505.3,326.3,-0.7,1.8,2470.422,13.32,0.045,244.0
2020-10-21T06:34:03,42.805,6.029,-0.043,-0.026,-0.003,108.0,108.0,105.0,13.4,1505.3,325.4,-0.7,1.9,2470.437,13.32,0.05,238.8
2020-10-21T06:37:03,42.805,6.029,-0.046,-0.041,-0.007,108.0,109.0,104.0,13.4,1505.3,327.7,-0.7,1.8,2470.445,13.32,0.061,228.3
2020-10-21T06:40:03,42.805,6.029,-0.043,-0.045,-0.005,109.0,108.0,105.0,13.3,1505.3,322.8,-0.7,1.8,2470.429,13.32,0.062,223.7
2020-10-21T06:43:03,42.805,6.029,-0.049,-0.02,0.005,108.0,110.0,104.0,13.3,1505.3,327.7,-0.7,1.8,2470.413,13.32,0.052,247.8
2020-10-21T06:46:03,42.805,6.029,-0.027,-0.049,-0.032,108.0,108.0,105.0,13.4,1505.3,323.0,-0.7,1.8,2470.426,13.32,0.055,208.9
2020-10-21T06:49:03,42.805,6.029,-0.032,-0.028,0.011,109.0,108.0,105.0,13.4,1505.3,327.5,-0.7,1.9,2470.471,13.32,0.042,228.8
2020-10-21T06:52:03,42.805,6.029,-0.034,-0.043,-0.008,108.0,109.0,105.0,13.4,1505.3,324.4,-0.7,1.8,2470.414,13.32,0.054,218.3
2020-10-21T06:55:03,42.805,6.029,-0.037,-0.023,0.009,109.0,109.0,105.0,13.4,1505.3,326.3,-0.7,1.8,2470.432,13.32,0.043,238.1
2020-10-21T06:58:03,42.805,6.029,-0.045,-0.044,-0.023,108.0,108.0,104.0,13.4,1505.3,324.6,-0.7,1.8,2470.495,13.32,0.062,225.6
2020-10-21T07:04:03,42.805,6.029,-0.026,-0.038,0.008,108.0,108.0,105.0,13.3,1505.2,327.9,-0.7,1.8,2470.509,13.3,0.046,214.4
2020-10-21T07:07:03,42.805,6.029,-0.027,-0.034,0.033,108.0,108.0,104.0,13.4,1505.3,326.6,-0.7,1.8,2470.485,13.31,0.043,218.5
2020-10-21T07:10:03,42.805,6.029,-0.027,-0.034,-0.012,108.0,108.0,104.0,13.4,1505.3,327.7,-0.7,1.9,2470.489,13.32,0.043,218.5
2020-10-21T07:13:03,42.805,6.029,-0.05,-0.021,-0.01,109.0,108.0,106.0,13.3,1505.3,325.8,-0.7,1.9,2470.472,13.32,0.054,247.2
2020-10-21T07:16:03,42.805,6.029,-0.042,-0.038,-0.037,108.0,108.0,105.0,13.4,1505.3,327.0,-0.7,1.8,2470.492,13.32,0.056,227.9
2020-10-21T07:19:03,42.805,6.029,-0.015,-0.019,0.013,109.0,109.0,105.0,13.4,1505.3,325.0,-0.7,1.8,2470.507,13.32,0.024,218.3
2020-10-21T07:22:03,42.805,6.029,-0.046,-0.05,-0.029,108.0,111.0,105.0,13.4,1505.3,327.9,-0.7,1.8,2470.487,13.32,0.067,222.6
2020-10-21T07:25:03,42.805,6.029,-0.046,-0.021,-0.018,107.0,110.0,104.0,13.4,1505.3,325.9,-0.7,1.8,2470.493,13.32,0.05,245.5
2020-10-21T07:31:03,42.805,6.029,-0.041,-0.02,-0.042,108.0,109.0,104.0,13.4,1505.3,326.5,-0.7,1.8,2470.544,13.31,0.045,244.0
2020-10-21T07:34:03,42.805,6.029,-0.042,-0.031,-0.001,108.0,110.0,105.0,13.3,1505.3,327.6,-0.7,1.8,2470.521,13.31,0.052,233.6
2020-10-21T07:37:03,42.805,6.029,-0.015,-0.038,0.022,108.0,109.0,104.0,13.4,1505.3,326.6,-0.7,1.8,2470.531,13.32,0.04,201.5
2020-10-21T07:40:03,42.805,6.029,-0.034,-0.028,0.02,108.0,108.0,107.0,13.4,1505.3,327.5,-0.7,1.8,2470.53,13.32,0.044,230.5
2020-10-21T07:43:03,42.805,6.029,-0.042,-0.025,-0.006,109.0,108.0,103.0,13.4,1505.3,327.1,-0.7,1.8,2470.535,13.32,0.048,239.2
2020-10-21T07:46:03,42.805,6.029,-0.02,-0.023,-0.03,108.0,109.0,104.0,13.3,1505.3,326.4,-0.7,1.8,2470.506,13.32,0.03,221.0
2020-10-21T07:49:03,42.805,6.029,-0.038,-0.025,-0.026,108.0,108.0,105.0,13.3,1505.3,322.6,-0.7,1.8,2470.543,13.32,0.045,236.7
2020-10-21T07:52:03,42.805,6.029,-0.027,-0.007,-0.008,108.0,110.0,103.0,13.4,1505.3,327.6,-0.7,1.9,2470.582,13.32,0.027,255.5
2020-10-21T07:55:03,42.805,6.029,-0.037,-0.021,0.008,108.0,108.0,105.0,13.4,1505.3,325.9,-0.7,1.8,2470.534,13.32,0.042,240.4
2020-10-21T07:58:03,42.805,6.029,-0.031,-0.031,0.041,107.0,108.0,104.0,13.4,1505.3,326.5,-0.7,1.8,2470.509,13.32,0.043,225.0
2020-10-21T08:04:03,42.805,6.029,-0.046,-0.024,-0.007,106.0,108.0,105.0,13.4,1505.2,326.1,-0.7,1.8,2470.538,13.3,0.051,242.4
2020-10-21T08:07:03,42.805,6.029,-0.043,-0.028,-0.012,109.0,107.0,104.0,13.4,1505.3,325.5,-0.7,1.8,2470.548,13.31,0.051,236.9
2020-10-21T08:10:03,42.805,6.029,-0.06,-0.031,-0.023,108.0,110.0,105.0,13.4,1505.3,326.4,-0.7,1.9,2470.571,13.32,0.067,242.7
2020-10-21T08:13:03,42.805,6.029,-0.013,-0.047,-0.009,107.0,110.0,104.0,13.4,1505.3,324.5,-0.7,1.8,2470.574,13.32,0.048,195.5
2020-10-21T08:16:03,42.805,6.029,-0.052,-0.036,0.007,109.0,108.0,104.0,13.4,1505.3,325.4,-0.7,1.8,2470.542,13.32,0.063,235.3
2020-10-21T08:19:03,42.805,6.029,-0.026,-0.045,0.009,109.0,108.0,103.0,13.4,1505.3,323.9,-0.7,1.8,2470.557,13.32,0.051,210.0
2020-10-21T08:22:03,42.805,6.029,-0.038,-0.036,-0.021,107.0,107.0,103.0,13.4,1505.3,326.0,-0.7,1.8,2470.58,13.32,0.052,226.5
2020-10-21T08:25:03,42.805,6.029,-0.035,-0.029,-0.009,107.0,107.0,105.0,13.4,1505.3,327.5,-0.7,1.8,2470.565,13.32,0.045,230.4
2020-10-21T08:28:03,42.805,6.029,-0.027,-0.04,-0.01,107.0,109.0,104.0,13.4,1505.3,323.8,-0.7,1.8,2470.554,13.32,0.048,214.0
2020-10-21T08:31:03,42.805,6.029,-0.029,-0.021,-0.015,106.0,107.0,104.0,13.4,1505.3,324.9,-0.7,1.8,2470.585,13.32,0.035,234.1
2020-10-21T08:34:03,42.805,6.029,-0.032,-0.02,-0.028,108.0,108.0,103.0,13.4,1505.3,326.7,-0.7,1.8,2470.6,13.32,0.037,238.0
2020-10-21T08:37:03,42.805,6.029,-0.044,-0.036,0.005,107.0,108.0,103.0,13.4,1505.3,323.9,-0.7,1.8,2470.511,13.32,0.056,230.7
2020-10-21T08:40:03,42.805,6.029,-0.032,-0.03,0.01,108.0,108.0,104.0,13.4,1505.3,324.1,-0.7,1.8,2470.561,13.32,0.043,226.9
2020-10-21T08:43:03,42.805,6.029,-0.038,-0.036,-0.023,107.0,109.0,103.0,13.4,1505.3,327.7,-0.7,1.8,2470.56,13.32,0.052,226.5
2020-10-21T08:46:03,42.805,6.029,-0.029,-0.036,-0.009,106.0,106.0,103.0,13.3,1505.3,325.3,-0.7,1.8,2470.62,13.32,0.046,218.9
2020-10-21T08:49:03,42.805,6.029,-0.024,-0.021,-0.036,106.0,107.0,104.0,13.4,1505.3,326.3,-0.7,1.8,2470.572,13.32,0.031,228.8
2020-10-21T08:52:03,42.805,6.029,-0.028,-0.052,-0.011,106.0,107.0,104.0,13.3,1505.3,324.9,-0.7,1.9,2470.539,13.32,0.059,208.3
2020-10-21T08:55:03,42.805,6.029,-0.041,-0.038,-0.032,106.0,107.0,102.0,13.3,1505.3,326.1,-0.7,1.8,2470.545,13.32,0.055,227.2
2020-10-21T08:58:03,42.805,6.029,-0.022,-0.037,-0.017,106.0,108.0,103.0,13.4,1505.3,326.6,-0.7,1.8,2470.606,13.32,0.043,210.7
2020-10-21T09:04:03,42.805,6.029,-0.044,-0.048,0.001,107.0,107.0,103.0,13.4,1505.2,327.3,-0.7,1.8,2470.618,13.3,0.065,222.5
2020-10-21T09:07:03,42.805,6.029,-0.025,-0.035,0.019,106.0,107.0,103.0,13.4,1505.3,327.7,-0.7,1.9,2470.635,13.31,0.043,215.5
2020-10-21T09:10:03,42.805,6.029,-0.037,-0.04,-0.019,107.0,107.0,104.0,13.4,1505.3,326.8,-0.7,1.8,2470.586,13.32,0.054,222.8
2020-10-21T09:13:03,42.805,6.029,-0.059,-0.045,0.019,106.0,107.0,103.0,13.4,1505.3,325.0,-0.7,1.8,2470.606,13.32,0.074,232.7
2020-10-21T09:16:03,42.805,6.029,-0.029,-0.024,0.017,107.0,108.0,104.0,13.3,1505.3,325.4,-0.7,1.8,2470.632,13.32,0.037,230.4
2020-10-21T09:19:03,42.805,6.029,-0.028,-0.031,0.004,107.0,107.0,104.0,13.4,1505.3,326.9,-0.7,1.9,2470.624,13.32,0.041,222.1
2020-10-21T09:22:03,42.805,6.029,-0.052,-0.036,-0.026,106.0,106.0,103.0,13.3,1505.3,324.5,-0.7,1.8,2470.618,13.32,0.063,235.3
2020-10-21T09:25:03,42.805,6.029,-0.031,-0.04,0.008,106.0,107.0,105.0,13.4,1505.3,326.4,-0.7,1.8,2470.597,13.32,0.05,217.8
2020-10-21T09:28:03,42.805,6.029,-0.046,-0.029,0.01,107.0,106.0,104.0,13.4,1505.3,322.7,-0.7,1.8,2470.588,13.32,0.054,237.8
2020-10-21T09:31:03,42.805,6.029,-0.04,-0.022,-0.001,107.0,107.0,104.0,13.4,1505.3,326.5,-0.7,1.8,2470.608,13.32,0.045,241.2
2020-10-21T09:34:03,42.805,6.029,-0.035,-0.037,-0.01,107.0,108.0,104.0,13.4,1505.3,326.6,-0.7,1.8,2470.608,13.32,0.05,223.4
2020-10-21T09:37:03,42.805,6.029,-0.018,-0.025,-0.029,107.0,109.0,104.0,13.4,1505.3,323.0,-0.7,1.8,2470.588,13.32,0.03,215.8
2020-10-21T09:40:03,42.805,6.029,-0.029,-0.039,-0.034,106.0,105.0,104.0,13.4,1505.3,323.6,-0.7,1.8,2470.613,13.32,0.048,216.6
2020-10-21T09:43:03,42.805,6.029,-0.046,-0.044,-0.034,106.0,107.0,103.0,13.4,1505.3,326.4,-0.7,1.8,2470.589,13.32,0.063,226.3
2020-10-21T09:46:03,42.805,6.029,-0.044,-0.023,-0.019,106.0,107.0,103.0,13.4,1505.3,323.8,-0.7,1.8,2470.632,13.32,0.049,242.4
2020-10-21T09:49:03,42.805,6.029,-0.046,-0.037,-0.038,106.0,106.0,104.0,13.3,1505.3,325.9,-0.7,1.8,2470.613,13.32,0.059,231.2
2020-10-21T09:52:03,42.805,6.029,-0.027,-0.019,-0.003,106.0,106.0,103.0,13.4,1505.3,324.7,-0.7,1.8,2470.621,13.32,0.033,234.9
2020-10-21T09:55:03,42.805,6.029,-0.036,-0.026,-0.03,107.0,107.0,103.0,13.3,1505.3,327.6,-0.7,1.8,2470.618,13.32,0.044,234.2